| time (UTC) | temp F | wind direction | speed MPH | gust MPH | rain 1hr in | rain 24hr in | rain mn in | humidity % | barometer mb |
| 20260507234322 | 54 | 257 | 0.0 | 0.0 | 0.00 | 1.18 | 1.17 | 90 | 1002.0 |
| 20260507233310 | 54 | 76 | 0.0 | 0.0 | 0.00 | 1.18 | 1.17 | 89 | 1002.3 |
| 20260507232258 | 54 | 244 | 0.0 | 0.0 | 0.00 | 1.18 | 1.17 | 89 | 1002.1 |
| 20260507231253 | 54 | 262 | 0.0 | 0.0 | 0.00 | 1.18 | 1.17 | 89 | 1002.2 |
| 20260507230753 | 54 | 319 | 0.0 | 0.0 | 0.00 | 1.18 | 1.17 | 89 | 1002.2 |
| 20260507225751 | 54 | 280 | 0.0 | 0.0 | 0.00 | 1.18 | 1.17 | 89 | 1002.6 |
| 20260507225251 | 54 | 281 | 0.0 | 0.0 | 0.00 | 1.18 | 1.17 | 89 | 1002.6 |
| 20260507224750 | 54 | 288 | 0.0 | 0.0 | 0.00 | 1.18 | 1.17 | 90 | 1002.3 |
| 20260507224248 | 54 | 227 | 0.0 | 0.0 | 0.00 | 1.18 | 1.17 | 90 | 1002.5 |
| 20260507223749 | 54 | 288 | 0.0 | 0.0 | 0.00 | 1.18 | 1.17 | 90 | 1002.5 |
| 20260507223248 | 54 | 283 | 0.0 | 0.0 | 0.00 | 1.18 | 1.17 | 90 | 1002.5 |
| 20260507222747 | 55 | 239 | 0.0 | 0.0 | 0.00 | 1.18 | 1.17 | 90 | 1002.5 |
| 20260507222246 | 55 | 265 | 0.0 | 0.0 | 0.00 | 1.18 | 1.17 | 90 | 1002.5 |
| 20260507221746 | 55 | 281 | 0.0 | 0.0 | 0.00 | 1.18 | 1.17 | 90 | 1002.3 |
| 20260507221245 | 55 | 46 | 0.0 | 0.0 | 0.00 | 1.18 | 1.17 | 90 | 1002.1 |
| 20260507220244 | 55 | 226 | 0.0 | 0.0 | 0.00 | 1.18 | 1.17 | 90 | 1001.9 |
| 20260507215744 | 55 | 288 | 0.0 | 0.0 | 0.00 | 1.18 | 1.17 | 90 | 1001.9 |
| 20260507214743 | 55 | 344 | 0.0 | 0.0 | 0.00 | 1.18 | 1.17 | 90 | 1001.8 |
| 20260507214243 | 55 | 288 | 0.0 | 0.0 | 0.00 | 1.18 | 1.17 | 90 | 1001.7 |
| 20260507213742 | 55 | 303 | 0.0 | 0.0 | 0.00 | 1.18 | 1.17 | 89 | 1001.7 |
| 20260507213240 | 56 | 262 | 0.0 | 0.0 | 0.00 | 1.18 | 1.17 | 89 | 1002.0 |
| 20260507212740 | 56 | 126 | 0.0 | 0.0 | 0.00 | 1.18 | 1.17 | 89 | 1002.0 |
| 20260507212240 | 56 | 285 | 0.0 | 0.0 | 0.00 | 1.18 | 1.17 | 89 | 1002.0 |
| 20260507211738 | 56 | 356 | 0.0 | 0.0 | 0.00 | 1.18 | 1.17 | 89 | 1002.0 |
| 20260507211236 | 56 | 291 | 0.0 | 0.0 | 0.00 | 1.18 | 1.17 | 89 | 1002.2 |
| 20260507210734 | 56 | 242 | 0.0 | 0.0 | 0.00 | 1.18 | 1.17 | 88 | 1001.8 |
| 20260507210234 | 56 | 255 | 0.0 | 0.0 | 0.00 | 1.18 | 1.17 | 87 | 1001.7 |
| 20260507205734 | 56 | 276 | 0.0 | 0.0 | 0.00 | 1.18 | 1.17 | 87 | 1001.6 |
| 20260507205234 | 56 | 67 | 0.0 | 0.0 | 0.00 | 1.18 | 1.17 | 87 | 1001.5 |
| 20260507204734 | 56 | 271 | 0.0 | 0.0 | 0.00 | 1.18 | 1.17 | 86 | 1001.6 |
| 20260507204230 | 56 | 224 | 0.0 | 0.0 | 0.00 | 1.18 | 1.17 | 86 | 1001.5 |
| 20260507203730 | 56 | 216 | 0.0 | 0.0 | 0.00 | 1.18 | 1.17 | 86 | 1001.4 |
| 20260507203230 | 56 | 126 | 0.0 | 0.0 | 0.00 | 1.18 | 1.17 | 86 | 1001.4 |
| 20260507202730 | 56 | 255 | 0.0 | 0.0 | 0.00 | 1.18 | 1.17 | 85 | 1001.3 |
| 20260507200728 | 57 | 262 | 0.0 | 0.0 | 0.00 | 1.18 | 1.17 | 84 | 1001.3 |
| 20260507200228 | 57 | 338 | 0.0 | 0.0 | 0.00 | 1.18 | 1.17 | 85 | 1001.2 |
| 20260507195727 | 57 | 253 | 0.0 | 0.0 | 0.00 | 1.18 | 1.17 | 84 | 1000.7 |
| 20260507195221 | 57 | 240 | 0.0 | 0.0 | 0.00 | 1.18 | 1.17 | 84 | 1000.3 |
| 20260507194713 | 57 | 326 | 0.0 | 0.0 | 0.00 | 1.18 | 1.17 | 83 | 1000.1 |
| 20260507194204 | 57 | 297 | 0.0 | 0.0 | 0.00 | 1.18 | 1.17 | 82 | 999.9 |
| 20260507193658 | 58 | 267 | 0.0 | 0.0 | 0.00 | 1.18 | 1.17 | 81 | 999.7 |
| 20260507193151 | 58 | 307 | 0.0 | 0.0 | 0.00 | 1.18 | 1.17 | 81 | 1000.0 |
| 20260507192646 | 58 | 274 | 0.0 | 0.0 | 0.00 | 1.18 | 1.17 | 82 | 1000.1 |
| 20260507192141 | 59 | 278 | 0.0 | 0.0 | 0.00 | 1.18 | 1.17 | 81 | 1000.2 |
| 20260507191634 | 59 | 219 | 0.0 | 0.0 | 0.00 | 1.18 | 1.17 | 81 | 1000.3 |
| 20260507191128 | 59 | 92 | 0.0 | 0.0 | 0.00 | 1.18 | 1.17 | 80 | 1000.9 |
| 20260507190117 | 59 | 179 | 0.0 | 0.0 | 0.00 | 1.18 | 1.17 | 81 | 1001.3 |
| 20260507185610 | 59 | 264 | 0.0 | 0.0 | 0.00 | 1.18 | 1.17 | 80 | 1001.8 |
| 20260507185104 | 59 | 276 | 0.0 | 0.0 | 0.00 | 1.18 | 1.17 | 81 | 1002.0 |
| 20260507184558 | 59 | 88 | 0.0 | 0.0 | 0.00 | 1.18 | 1.17 | 81 | 1002.1 |
| 20260507184052 | 59 | 243 | 0.0 | 0.0 | 0.00 | 1.18 | 1.17 | 81 | 1002.0 |
| 20260507183546 | 59 | 257 | 0.0 | 0.0 | 0.00 | 1.18 | 1.17 | 81 | 1002.2 |
| 20260507182534 | 59 | 257 | 0.0 | 0.0 | 0.00 | 1.18 | 1.17 | 82 | 1002.5 |
| 20260507182028 | 60 | 316 | 0.0 | 0.0 | 0.00 | 1.18 | 1.17 | 81 | 1002.6 |
| 20260507181016 | 59 | 321 | 0.0 | 0.0 | 0.00 | 1.18 | 1.17 | 81 | 1002.8 |
| 20260507180509 | 59 | 75 | 0.0 | 0.0 | 0.00 | 1.18 | 1.17 | 81 | 1002.8 |
| 20260507180004 | 59 | 98 | 0.0 | 0.0 | 0.00 | 1.18 | 1.17 | 82 | 1002.8 |
| 20260507175458 | 59 | 76 | 0.0 | 0.0 | 0.00 | 1.18 | 1.17 | 82 | 1002.8 |
| 20260507174951 | 59 | 312 | 0.0 | 0.0 | 0.00 | 1.18 | 1.17 | 83 | 1003.0 |
| 20260507174446 | 59 | 334 | 0.0 | 0.0 | 0.00 | 1.18 | 1.17 | 83 | 1002.9 |
| 20260507173940 | 58 | 270 | 0.0 | 0.0 | 0.00 | 1.18 | 1.17 | 83 | 1002.9 |
| 20260507173434 | 58 | 282 | 0.0 | 0.0 | 0.00 | 1.18 | 1.17 | 84 | 1002.6 |
| 20260507172927 | 58 | 221 | 0.0 | 0.0 | 0.00 | 1.18 | 1.17 | 85 | 1002.1 |
| 20260507172422 | 58 | 273 | 0.0 | 0.0 | 0.00 | 1.18 | 1.17 | 85 | 1001.8 |
| 20260507171410 | 59 | 273 | 0.0 | 0.0 | 0.00 | 1.18 | 1.17 | 84 | 1001.8 |
| 20260507170910 | 58 | 256 | 0.0 | 0.0 | 0.00 | 1.18 | 1.17 | 83 | 1001.8 |
| 20260507170410 | 58 | 248 | 0.0 | 0.0 | 0.00 | 1.18 | 1.17 | 84 | 1001.8 |
| 20260507165910 | 58 | 251 | 0.0 | 0.0 | 0.00 | 1.18 | 1.17 | 84 | 1001.8 |
| 20260507165410 | 58 | 231 | 0.0 | 0.0 | 0.00 | 1.18 | 1.17 | 84 | 1002.0 |
| 20260507164910 | 58 | 224 | 0.0 | 0.0 | 0.00 | 1.18 | 1.17 | 85 | 1002.0 |
| 20260507164410 | 58 | 246 | 0.0 | 0.0 | 0.00 | 1.18 | 1.17 | 84 | 1002.4 |
| 20260507163410 | 58 | 272 | 0.0 | 0.0 | 0.00 | 1.18 | 1.17 | 86 | 1003.0 |
| 20260507162914 | 58 | 302 | 0.0 | 0.0 | 0.00 | 1.18 | 1.17 | 85 | 1002.8 |
| 20260507162413 | 58 | 231 | 0.0 | 0.0 | 0.00 | 1.18 | 1.17 | 85 | 1003.2 |
| 20260507161913 | 58 | 300 | 0.0 | 0.0 | 0.00 | 1.18 | 1.17 | 85 | 1003.0 |
| 20260507161413 | 58 | 274 | 0.0 | 0.0 | 0.00 | 1.18 | 1.17 | 87 | 1002.5 |
| 20260507155911 | 58 | 266 | 0.0 | 0.0 | 0.00 | 1.18 | 1.17 | 87 | 1002.0 |
| 20260507155411 | 58 | 285 | 0.0 | 0.0 | 0.00 | 1.18 | 1.17 | 87 | 1002.3 |
| 20260507154911 | 58 | 305 | 0.0 | 0.0 | 0.00 | 1.18 | 1.17 | 88 | 1002.4 |
| 20260507154411 | 58 | 237 | 0.0 | 0.0 | 0.00 | 1.18 | 1.17 | 88 | 1002.3 |
| 20260507153911 | 58 | 231 | 0.0 | 0.0 | 0.00 | 1.18 | 1.17 | 87 | 1002.1 |
| 20260507152911 | 58 | 278 | 0.0 | 0.0 | 0.00 | 1.18 | 1.17 | 89 | 1002.1 |
| 20260507152412 | 58 | 264 | 0.0 | 0.0 | 0.00 | 1.18 | 1.17 | 88 | 1002.4 |
| 20260507151911 | 58 | 259 | 0.0 | 0.0 | 0.00 | 1.18 | 1.17 | 88 | 1002.3 |
| 20260507151411 | 58 | 274 | 0.0 | 0.0 | 0.00 | 1.18 | 1.17 | 90 | 1002.4 |
| 20260507150912 | 58 | 245 | 0.0 | 0.0 | 0.00 | 1.18 | 1.17 | 91 | 1002.4 |
| 20260507150411 | 58 | 270 | 0.0 | 0.0 | 0.00 | 1.18 | 1.17 | 93 | 1002.5 |
| 20260507145911 | 58 | 267 | 0.0 | 0.0 | 0.00 | 1.18 | 1.17 | 96 | 1002.5 |
| 20260507145411 | 57 | 243 | 0.0 | 0.0 | 0.00 | 1.18 | 1.17 | 100 | 1002.3 |
| 20260507144407 | 0 | 0.0 | 0.0 | 0.00 | 1.18 | 1.17 | 1002.5 | ||
| 20260507143906 | 0 | 0.0 | 0.0 | 0.00 | 1.18 | 1.17 | 1002.5 | ||
| 20260507142819 | 0 | 0.0 | 0.0 | 0.00 | 1.18 | 1.17 | 1002.3 | ||
| 20260507142318 | 0 | 0.0 | 0.0 | 0.00 | 1.18 | 1.17 | 1002.3 | ||
| 20260507141810 | 0 | 0.0 | 0.0 | 0.00 | 1.18 | 1.17 | 1002.1 | ||
| 20260507141310 | 0 | 0.0 | 0.0 | 0.00 | 1.18 | 1.17 | 1002.0 | ||
| 20260507140809 | 0 | 0.0 | 0.0 | 0.00 | 1.18 | 1.17 | 1001.9 | ||
| 20260507140215 | 0 | 0.0 | 0.0 | 0.00 | 1.18 | 1.17 | 1001.0 | ||
| 20260507135715 | 0 | 0.0 | 0.0 | 0.00 | 1.18 | 1.17 | 1000.8 | ||
| 20260507135212 | 0 | 0.0 | 0.0 | 0.00 | 1.18 | 1.17 | 1001.2 | ||
| 20260507134710 | 0 | 0.0 | 0.0 | 0.00 | 1.18 | 1.17 | 1001.8 | ||
| 20260507134208 | 0 | 0.0 | 0.0 | 0.00 | 1.18 | 1.17 | 1001.7 | ||
| 20260507133620 | 0 | 0.0 | 0.0 | 0.00 | 1.18 | 1.17 | 1002.3 | ||
| 20260507133113 | 0 | 0.0 | 0.0 | 0.00 | 1.18 | 1.17 | 1002.6 | ||
| 20260507132610 | 0 | 0.0 | 0.0 | 0.00 | 1.18 | 1.17 | 1003.0 | ||
| 20260507132107 | 0 | 0.0 | 0.0 | 0.00 | 1.18 | 1.17 | 1003.6 | ||
| 20260507131517 | 0 | 0.0 | 0.0 | 0.00 | 1.18 | 1.17 | 1002.8 | ||
| 20260507131013 | 0 | 0.0 | 0.0 | 0.00 | 1.18 | 1.17 | 1002.8 | ||
| 20260507125508 | 0 | 0.0 | 0.0 | 0.00 | 1.18 | 1.17 | 1003.0 | ||
| 20260507124912 | 0 | 0.0 | 0.0 | 0.00 | 1.18 | 1.17 | 1002.0 | ||
| 20260507124409 | 0 | 0.0 | 0.0 | 0.00 | 1.18 | 1.17 | 1002.0 | ||
| 20260507123406 | 0 | 0.0 | 0.0 | 0.00 | 1.18 | 1.17 | 1001.4 | ||
| 20260507122906 | 0 | 0.0 | 0.0 | 0.00 | 1.18 | 1.17 | 1001.5 | ||
| 20260507122318 | 0 | 0.0 | 0.0 | 0.00 | 1.18 | 1.17 | 1001.4 | ||
| 20260507121816 | 0 | 0.0 | 0.0 | 0.00 | 1.18 | 1.17 | 1001.7 | ||
| 20260507121310 | 0 | 0.0 | 0.0 | 0.00 | 1.18 | 1.17 | 1002.0 | ||
| 20260507120808 | 0 | 0.0 | 0.0 | 0.00 | 1.18 | 1.17 | 1001.8 | ||
| 20260507120211 | 0 | 0.0 | 0.0 | 0.00 | 1.18 | 1.17 | 1001.7 | ||
| 20260507115707 | 0 | 0.0 | 0.0 | 0.00 | 1.18 | 1.17 | 1001.4 | ||
| 20260507115113 | 0 | 0.0 | 0.0 | 0.00 | 1.18 | 1.17 | 1001.1 | ||
| 20260507114608 | 0 | 0.0 | 0.0 | 0.00 | 1.18 | 1.17 | 1000.5 | ||
| 20260507114107 | 0 | 0.0 | 0.0 | 0.00 | 1.18 | 1.17 | 1000.4 | ||
| 20260507113029 | 0 | 0.0 | 0.0 | 0.00 | 1.18 | 1.17 | 1002.0 | ||
| 20260507112510 | 0 | 0.0 | 0.0 | 0.00 | 1.18 | 1.17 | 1001.9 | ||
| 20260507112001 | 0 | 0.0 | 0.0 | 0.00 | 1.18 | 1.17 | 1001.6 | ||
| 20260507110906 | 0 | 0.0 | 0.0 | 0.00 | 1.18 | 1.17 | 1000.5 | ||
| 20260507110317 | 0 | 0.0 | 0.0 | 0.00 | 1.18 | 1.17 | 1000.3 | ||
| 20260507105807 | 0 | 0.0 | 0.0 | 0.00 | 1.18 | 1.17 | 1000.1 | ||
| 20260507105209 | 0 | 0.0 | 0.0 | 0.00 | 1.18 | 1.17 | 1000.7 | ||
| 20260507104708 | 0 | 0.0 | 0.0 | 0.00 | 1.18 | 1.17 | 1000.5 | ||
| 20260507104205 | 0 | 0.0 | 0.0 | 0.00 | 1.18 | 1.17 | 1000.7 | ||
| 20260507103613 | 0 | 0.0 | 0.0 | 0.00 | 1.18 | 1.17 | 1000.4 | ||
| 20260507103108 | 0 | 0.0 | 0.0 | 0.00 | 1.18 | 1.17 | 1000.3 | ||
| 20260507102608 | 0 | 0.0 | 0.0 | 0.00 | 1.18 | 1.17 | 1000.8 | ||
| 20260507102105 | 0 | 0.0 | 0.0 | 0.00 | 1.18 | 1.17 | 1000.8 | ||
| 20260507101512 | 0 | 0.0 | 0.0 | 0.00 | 1.18 | 1.17 | 1000.8 | ||
| 20260507101009 | 0 | 0.0 | 0.0 | 0.00 | 1.18 | 1.17 | 1000.9 | ||
| 20260507100513 | 0 | 0.0 | 0.0 | 0.00 | 1.18 | 1.17 | 1000.5 | ||
| 20260507100011 | 0 | 0.0 | 0.0 | 0.00 | 1.18 | 1.17 | 999.5 | ||
| 20260507095511 | 0 | 0.0 | 0.0 | 0.00 | 1.18 | 1.17 | 999.8 | ||
| 20260507094917 | 0 | 0.0 | 0.0 | 0.00 | 1.18 | 1.17 | 999.8 | ||
| 20260507094407 | 0 | 0.0 | 0.0 | 0.00 | 1.18 | 1.17 | 999.3 | ||
| 20260507093906 | 0 | 0.0 | 0.0 | 0.00 | 1.18 | 1.17 | 1000.3 | ||
| 20260507093401 | 0 | 0.0 | 0.0 | 0.00 | 1.18 | 1.17 | 1000.5 | ||
| 20260507092817 | 0 | 0.0 | 0.0 | 0.00 | 1.18 | 1.17 | 1000.2 | ||
| 20260507092317 | 0 | 0.0 | 0.0 | 0.00 | 1.18 | 1.17 | 1000.2 | ||
| 20260507091807 | 0 | 0.0 | 0.0 | 0.00 | 1.18 | 1.17 | 1000.6 | ||
| 20260507090705 | 0 | 0.0 | 0.0 | 0.00 | 1.18 | 1.17 | 1000.7 | ||
| 20260507085103 | 0 | 0.0 | 0.0 | 0.00 | 1.18 | 1.17 | 999.9 | ||
| 20260507084605 | 0 | 0.0 | 0.0 | 0.00 | 1.18 | 1.17 | 999.6 | ||
| 20260507084009 | 0 | 0.0 | 0.0 | 0.00 | 1.18 | 1.17 | 1000.3 | ||
| 20260507083418 | 0 | 0.0 | 0.0 | 0.00 | 1.18 | 1.17 | 1000.3 | ||
| 20260507082905 | 0 | 0.0 | 0.0 | 0.00 | 1.18 | 1.17 | 1000.2 | ||
| 20260507082310 | 0 | 0.0 | 0.0 | 0.00 | 1.18 | 1.17 | 1000.1 | ||
| 20260507081807 | 0 | 0.0 | 0.0 | 0.00 | 1.18 | 1.17 | 1000.5 | ||
| 20260507081213 | 0 | 0.0 | 0.0 | 0.00 | 1.18 | 1.17 | 1001.5 | ||
| 20260507080712 | 0 | 0.0 | 0.0 | 0.00 | 1.18 | 1.17 | 1001.5 | ||
| 20260507080201 | 0 | 0.0 | 0.0 | 0.00 | 1.18 | 1.17 | 1001.2 | ||
| 20260507075607 | 0 | 0.0 | 0.0 | 0.00 | 1.18 | 1.17 | 1001.1 | ||
| 20260507075017 | 0 | 0.0 | 0.0 | 0.00 | 1.18 | 1.17 | 1001.1 | ||
| 20260507074506 | 0 | 0.0 | 0.0 | 0.00 | 1.18 | 1.17 | 1001.1 | ||
| 20260507074005 | 0 | 0.0 | 0.0 | 0.00 | 1.18 | 1.17 | 1000.6 | ||
| 20260507073406 | 0 | 0.0 | 0.0 | 0.01 | 1.18 | 1.17 | 1000.4 | ||
| 20260507072903 | 0 | 127 | 0.0 | 0.0 | 0.01 | 1.18 | 1.17 | 1000.4 | |
| 20260507072408 | 62 | 127 | 0.0 | 0.0 | 0.01 | 1.18 | 1.17 | 100 | 1000.0 |
| 20260507071906 | 62 | 127 | 0.0 | 0.0 | 0.02 | 1.18 | 1.17 | 100 | 1000.0 |
| 20260507071337 | 62 | 133 | 0.0 | 0.0 | 0.02 | 1.18 | 1.17 | 100 | 1000.3 |
| 20260507070333 | 62 | 124 | 0.0 | 0.0 | 0.04 | 1.18 | 1.17 | 100 | 1000.3 |
| 20260507065832 | 62 | 150 | 0.0 | 0.0 | 0.05 | 1.18 | 1.17 | 100 | 1000.1 |
| 20260507065332 | 63 | 103 | 0.0 | 0.0 | 0.06 | 1.18 | 1.17 | 100 | 999.2 |
| 20260507064832 | 63 | 148 | 0.0 | 0.0 | 0.07 | 1.18 | 1.17 | 100 | 999.1 |
| 20260507064329 | 63 | 117 | 0.0 | 0.0 | 0.09 | 1.18 | 1.17 | 100 | 999.6 |
| 20260507063328 | 62 | 76 | 0.0 | 0.0 | 0.09 | 1.17 | 1.17 | 100 | 1000.4 |
| 20260507062821 | 62 | 124 | 0.0 | 0.0 | 0.09 | 1.17 | 1.17 | 100 | 998.0 |
| 20260507062315 | 63 | 166 | 0.0 | 0.0 | 0.10 | 1.17 | 1.17 | 100 | 999.2 |
| 20260507061303 | 63 | 129 | 0.0 | 0.0 | 0.11 | 1.16 | 1.16 | 100 | 1000.5 |
| 20260507060758 | 63 | 120 | 0.0 | 0.0 | 0.11 | 1.15 | 1.15 | 100 | 1000.1 |
| 20260507060251 | 63 | 142 | 0.0 | 0.0 | 0.10 | 1.14 | 1.13 | 100 | 1000.8 |
| 20260507055744 | 63 | 317 | 0.0 | 0.0 | 0.09 | 1.13 | 1.13 | 100 | 1001.8 |
| 20260507055239 | 63 | 317 | 0.0 | 0.0 | 0.07 | 1.11 | 1.11 | 100 | 1002.5 |
| 20260507054733 | 63 | 317 | 0.0 | 0.0 | 0.07 | 1.11 | 1.10 | 100 | 1002.7 |
| 20260507054227 | 64 | 316 | 0.0 | 0.0 | 0.06 | 1.09 | 1.09 | 100 | 1002.8 |
| 20260507053728 | 64 | 316 | 0.0 | 0.0 | 0.05 | 1.09 | 1.08 | 100 | 1003.2 |
| 20260507053225 | 64 | 316 | 0.0 | 0.0 | 0.05 | 1.08 | 1.07 | 100 | 1002.7 |
| 20260507051225 | 64 | 211 | 0.0 | 0.0 | 0.04 | 1.05 | 1.04 | 100 | 1000.7 |
| 20260507050726 | 65 | 146 | 0.0 | 0.0 | 0.04 | 1.04 | 1.03 | 100 | 1001.5 |
| 20260507050225 | 65 | 201 | 0.0 | 0.0 | 0.06 | 1.04 | 1.03 | 100 | 1002.1 |
| 20260507045725 | 65 | 252 | 0.0 | 0.0 | 0.09 | 1.04 | 1.03 | 100 | 1002.0 |
| 20260507045225 | 65 | 252 | 0.0 | 0.0 | 0.16 | 1.04 | 1.03 | 100 | 1001.8 |
| 20260507044721 | 65 | 236 | 0.0 | 0.0 | 0.22 | 1.04 | 1.03 | 100 | 1001.5 |
| 20260507044221 | 66 | 137 | 0.0 | 0.0 | 0.31 | 1.04 | 1.03 | 100 | 1001.5 |
| 20260507043722 | 66 | 137 | 0.0 | 0.0 | 0.43 | 1.04 | 1.03 | 100 | 1001.6 |
| 20260507043221 | 66 | 137 | 0.0 | 0.0 | 0.50 | 1.03 | 1.02 | 100 | 1002.0 |
| 20260507042719 | 66 | 254 | 0.0 | 0.0 | 0.62 | 1.02 | 1.02 | 100 | 1001.3 |
| 20260507042219 | 66 | 254 | 0.0 | 0.0 | 0.77 | 1.02 | 1.01 | 100 | 1001.5 |
| 20260507041219 | 66 | 246 | 0.0 | 0.0 | 1.00 | 1.01 | 1.00 | 100 | 1000.8 |
| 20260507040717 | 66 | 179 | 0.0 | 0.0 | 0.99 | 1.00 | 0.99 | 100 | 1000.9 |
| 20260507040215 | 66 | 170 | 0.0 | 0.0 | 0.98 | 0.98 | 0.98 | 100 | 1001.1 |
| 20260507035713 | 67 | 169 | 0.0 | 0.0 | 0.93 | 0.94 | 0.94 | 100 | 1001.7 |
| 20260507035213 | 67 | 263 | 0.0 | 0.0 | 0.88 | 0.88 | 0.87 | 100 | 1002.0 |
| 20260507034709 | 67 | 160 | 0.0 | 0.0 | 0.82 | 0.82 | 0.81 | 100 | 1000.5 |
| 20260507034209 | 67 | 253 | 0.0 | 0.0 | 0.72 | 0.72 | 0.72 | 100 | 1000.6 |
| 20260507033708 | 67 | 169 | 0.0 | 0.0 | 0.61 | 0.61 | 0.61 | 100 | 1000.4 |
| 20260507033209 | 66 | 127 | 0.0 | 0.0 | 0.51 | 0.51 | 0.53 | 100 | 1000.7 |
| 20260507032707 | 67 | 163 | 0.0 | 0.0 | 0.40 | 0.40 | 0.41 | 99 | 1000.5 |
| 20260507032207 | 67 | 176 | 0.0 | 0.0 | 0.24 | 0.24 | 0.24 | 99 | 1000.3 |
| 20260507031705 | 68 | 204 | 0.0 | 0.0 | 0.17 | 0.17 | 0.16 | 97 | 998.7 |
| 20260507031204 | 70 | 219 | 0.0 | 0.0 | 0.01 | 0.01 | 0.00 | 96 | 1000.4 |
| 20260507030704 | 73 | 200 | 0.0 | 0.0 | 0.01 | 0.01 | 0.00 | 97 | 999.2 |
| 20260507030203 | 75 | 111 | 0.0 | 0.0 | 0.01 | 0.01 | 0.00 | 98 | 998.9 |
| 20260507025702 | 77 | 79 | 0.0 | 0.0 | 0.01 | 0.01 | 0.01 | 94 | 998.6 |
| 20260507025159 | 78 | 48 | 0.0 | 0.0 | 0.00 | 0.00 | 0.00 | 86 | 998.4 |
| 20260507024700 | 78 | 56 | 0.0 | 0.0 | 0.00 | 0.00 | 0.00 | 85 | 998.6 |
| 20260507024159 | 78 | 60 | 0.0 | 0.0 | 0.00 | 0.00 | 0.00 | 85 | 998.5 |
| 20260507023155 | 78 | 68 | 0.0 | 0.0 | 0.00 | 0.00 | 0.00 | 85 | 999.0 |
| 20260507022156 | 78 | 67 | 0.0 | 0.0 | 0.00 | 0.00 | 0.00 | 85 | 998.8 |
| 20260507021655 | 78 | 54 | 0.0 | 0.0 | 0.00 | 0.00 | 0.00 | 84 | 998.8 |
| 20260507021155 | 78 | 67 | 0.0 | 0.0 | 0.00 | 0.00 | 0.00 | 85 | 999.2 |
| 20260507020155 | 78 | 39 | 0.0 | 0.0 | 0.00 | 0.00 | 0.00 | 85 | 999.3 |
| 20260507015656 | 78 | 63 | 0.0 | 0.0 | 0.00 | 0.00 | 0.00 | 84 | 999.5 |
| 20260507015155 | 79 | 66 | 0.0 | 0.0 | 0.00 | 0.00 | 0.00 | 84 | 999.8 |
| 20260507014654 | 79 | 53 | 0.0 | 0.0 | 0.00 | 0.00 | 0.00 | 84 | 1000.1 |
| 20260507013655 | 79 | 101 | 0.0 | 0.0 | 0.00 | 0.00 | 0.00 | 85 | 1000.0 |
| 20260507013154 | 79 | 76 | 0.0 | 0.0 | 0.00 | 0.00 | 0.00 | 85 | 1000.0 |
| 20260507012652 | 79 | 129 | 0.0 | 0.0 | 0.00 | 0.00 | 0.00 | 85 | 999.8 |
| 20260507012151 | 79 | 49 | 0.0 | 0.0 | 0.00 | 0.00 | 0.00 | 84 | 999.8 |
| 20260507011651 | 79 | 70 | 0.0 | 0.0 | 0.00 | 0.00 | 0.00 | 85 | 1000.3 |
| 20260507011151 | 79 | 77 | 0.0 | 0.0 | 0.00 | 0.00 | 0.00 | 85 | 1000.4 |
| 20260507010651 | 79 | 68 | 0.0 | 0.0 | 0.00 | 0.00 | 0.00 | 85 | 1000.3 |
| 20260507010151 | 79 | 65 | 0.0 | 0.0 | 0.00 | 0.00 | 0.00 | 85 | 1000.0 |
| 20260507005649 | 79 | 46 | 0.0 | 0.0 | 0.00 | 0.00 | 0.00 | 85 | 1000.0 |
| 20260507004648 | 78 | 65 | 0.0 | 0.0 | 0.00 | 0.00 | 0.00 | 85 | 1000.0 |
| 20260507003128 | 78 | 56 | 0.0 | 0.0 | 0.00 | 0.00 | 0.00 | 86 | 1000.2 |
| 20260507002622 | 78 | 60 | 0.0 | 0.0 | 0.00 | 0.00 | 0.00 | 86 | 1000.1 |
| 20260507001104 | 78 | 61 | 0.0 | 0.0 | 0.00 | 0.00 | 0.00 | 87 | 1000.2 |
| 20260507000559 | 78 | 65 | 0.0 | 0.0 | 0.00 | 0.00 | 0.00 | 87 | 1000.0 |
| 20260507000052 | 78 | 73 | 0.0 | 0.0 | 0.00 | 0.00 | 0.00 | 87 | 1000.0 |
| 20260506235548 | 78 | 70 | 0.0 | 0.0 | 0.00 | 0.00 | 0.00 | 87 | 999.8 |
| 20260506235040 | 78 | 74 | 0.0 | 0.0 | 0.00 | 0.00 | 0.00 | 88 | 999.7 |